Location: Mentone
(34.5413°N, 85.5351°W)
Time: 09:40:58
(UTC-05:00)

UOSAT-12 - Visible Passes

Search period start: 24 July 2017 00:00
Search period end: 03 August 2017 00:00
Orbit: 600 x 653 km, 64.6° (Epoch: 23 July)

Date Brightness Start Highest point End Pass type
(mag) Time Alt. Az. Time Alt. Az. Time Alt. Az.
25 Jul 9.7 05:02:42 10° SE 05:05:24 16° ESE 05:08:06 10° ENE visible
26 Jul 8.5 05:20:46 10° S 05:24:54 37° ESE 05:29:07 10° NE visible
28 Jul 9.4 04:21:32 10° SSE 04:24:41 19° ESE 04:27:53 10° ENE visible
29 Jul 8.0 04:39:57 10° S 04:44:14 45° ESE 04:48:36 10° NE visible
30 Jul 7.1 04:59:42 11° SW 05:03:57 73° WNW 05:08:33 10° NNE visible
31 Jul 9.0 03:42:10 18° SE 03:43:59 23° ESE 03:47:33 10° ENE visible
31 Jul 8.1 05:19:50 10° WSW 05:23:52 31° NW 05:27:59 10° N visible
01 Aug 7.5 04:01:54 34° S 04:03:34 55° ESE 04:08:03 10° NE visible
02 Aug 9.8 02:44:15 11° E 02:44:15 11° E 02:45:10 10° E visible
02 Aug 7.2 04:21:33 34° SW 04:23:19 60° WNW 04:27:53 10° NNE visible
